Location: Bacea
(45.9500°N, 22.6667°E)
Time: 10:08:37
(UTC+00:00)

Cosmos 1605 Rocket - Pass Details

Date: 16 October 2021
Orbit: 945 x 1006 km, 82.9° (Epoch: 07 December)

Event Time Altitude Azimuth Distance (km) Brightness Sun altitude
Rises 17:04:21 0° 159° (SSE) 3,641 6.8 -15.2°
Reaches altitude 10° 17:07:01 10° 151° (SSE) 2,708 6.0 -15.6°
Maximum altitude 17:12:35 36° 87° (E) 1,511 4.5 -16.6°
Drops below altitude 10° 17:18:14 10° 24° (NNE) 2,763 6.2 -17.6°
Sets 17:20:58 0° 16° (NNE) 3,724 6.9 -18.0°
